sat.trackr.live / text

‹ back to catalog

STARLINK-2603

NORAD 48375 · 2021-038Y

PAYLOAD ACTIVE UNKNOWN

§ Identity

Operator
Country
US
Launch date
2021-05-04
Launch site
AFETR
Launch vehicle
Mass (kg)
RCS (m²)

Purposes: comms

External: N2YO · Heavens-Above · Gunter

§ Orbital elements

Epoch: 2026-09-19T07:42:38.604096Z

Period
94.01 min
Inclination
53.1614°
Eccentricity
0.0001060
Mean motion
15.31694799 rev/d
Perigee alt
470.0 km
Apogee alt
471.5 km
Semi-major
6,848.9 km
B*
2.4217e-5
RAAN
166.6763°
Arg perigee
115.2605°
Mean anomaly
244.8507°
Rev number
29,689

§ Raw data

STARLINK-26031 48375U 21038Y   26262.32128014  .00000386  00000+0  24217-4 0  99962 48375  53.1614 166.6763 0001060 115.2605 244.8507 15.31694799296899

JSON: /api/v1/satellites/48375 · /tle

For live sub-satellite position, see the globe view (requires WebGL).

§ Visibility from observer

Set your observer location to see the next 7 days of passes ≥ 10°. The values pass through the URL so the page stays shareable.

No JS? Fill the form by hand. The geolocation button needs JavaScript.